GFSNW_prec_precacc12_162.txt.gz
Total_Precipitation_Accumulation
0.13 0.13 0.10 0.08 0.07 0.10 0.12 0.06 0.10 0.01 0.11 0.35 0.66 0.51 0.13 0.02 0.00 0.00 0.02 0.01 0.01 0.00 0.01 0.01 0.00 0.00 0.00 0.00 0.02 0.06 0.16 0.28 0.23 0.09 0.07 0.05 0.12 0.27 0.60 0.60 0.44 0.22 0.16 0.06
0.12 0.17 0.16 0.14 0.12 0.08 0.03 0.02 0.03 0.04 0.28 0.37 0.42 0.15 0.09 0.11 0.04 0.02 0.06 0.04 0.04 0.04 0.04 0.04 0.03 0.02 0.01 0.01 0.02 0.03 0.06 0.19 0.21 0.11 0.12 0.18 0.14 0.12 0.30 0.43 0.68 0.75 0.51 0.20
0.07 0.13 0.22 0.23 0.20 0.14 0.03 0.01 0.01 0.01 0.13 0.35 0.29 0.14 0.07 0.06 0.04 0.07 0.06 0.07 0.04 0.06 0.13 0.14 0.18 0.08 0.04 0.01 0.01 0.02 0.07 0.09 0.08 0.07 0.06 0.07 0.14 0.12 0.25 0.48 0.63 0.37 0.22 0.05
0.02 0.06 0.14 0.24 0.27 0.20 0.05 0.00 0.00 0.01 0.06 0.03 0.16 0.29 0.23 0.06 0.04 0.10 0.11 0.11 0.02 0.02 0.06 0.09 0.15 0.10 0.13 0.13 0.10 0.08 0.13 0.19 0.10 0.10 0.13 0.16 0.12 0.06 0.07 0.21 0.21 0.22 0.06 0.01
0.02 0.02 0.07 0.19 0.20 0.38 0.24 0.02 0.00 0.01 0.03 0.04 0.14 0.17 0.18 0.08 0.05 0.19 0.19 0.21 0.07 0.08 0.06 0.04 0.02 0.05 0.09 0.14 0.13 0.13 0.16 0.16 0.06 0.08 0.02 0.09 0.15 0.05 0.02 0.03 0.03 0.04 0.01 0.01
0.03 0.03 0.04 0.15 0.20 0.25 0.20 0.04 0.00 0.01 0.01 0.02 0.06 0.11 0.12 0.04 0.09 0.12 0.12 0.14 0.08 0.08 0.06 0.03 0.03 0.08 0.09 0.08 0.08 0.09 0.13 0.09 0.10 0.08 0.01 0.13 0.23 0.01 0.00 0.00 0.00 0.00 0.00 0.00
0.04 0.04 0.03 0.07 0.14 0.13 0.00 0.00 0.00 0.00 0.01 0.01 0.03 0.05 0.08 0.08 0.04 0.16 0.07 0.08 0.12 0.03 0.01 0.06 0.08 0.09 0.08 0.09 0.09 0.09 0.18 0.19 0.24 0.19 0.11 0.31 0.06 0.00 0.00 0.00 0.00 0.00 0.00 0.00
0.05 0.05 0.05 0.06 0.09 0.15 0.01 0.00 0.00 0.00 0.00 0.00 0.00 0.01 0.04 0.05 0.01 0.05 0.05 0.02 0.01 0.02 0.06 0.20 0.16 0.06 0.06 0.02 0.02 0.03 0.06 0.10 0.20 0.23 0.17 0.08 0.00 0.00 0.00 0.00 0.00 0.00 0.00 0.00
0.08 0.07 0.06 0.06 0.08 0.14 0.06 0.00 0.00 0.01 0.01 0.01 0.01 0.04 0.03 0.09 0.09 0.08 0.04 0.00 0.01 0.08 0.22 0.36 0.30 0.10 0.04 0.02 0.02 0.01 0.02 0.03 0.13 0.23 0.18 0.07 0.00 0.00 0.00 0.00 0.00 0.00 0.00 0.00
0.12 0.11 0.14 0.12 0.11 0.13 0.10 0.01 0.00 0.02 0.02 0.00 0.00 0.04 0.03 0.10 0.18 0.15 0.03 0.02 0.04 0.10 0.28 0.52 0.37 0.16 0.05 0.03 0.02 0.05 0.07 0.12 0.15 0.11 0.11 0.03 0.00 0.00 0.00 0.00 0.00 0.00 0.00 0.00
0.16 0.14 0.16 0.20 0.19 0.15 0.17 0.05 0.00 0.01 0.03 0.00 0.00 0.00 0.01 0.02 0.09 0.15 0.12 0.21 0.20 0.21 0.24 0.21 0.40 0.37 0.23 0.13 0.02 0.03 0.08 0.17 0.16 0.12 0.19 0.07 0.00 0.00 0.00 0.00 0.00 0.00 0.00 0.00
0.20 0.17 0.17 0.17 0.22 0.26 0.31 0.26 0.02 0.02 0.08 0.03 0.01 0.00 0.00 0.02 0.04 0.15 0.13 0.23 0.24 0.31 0.37 0.30 0.24 0.30 0.31 0.30 0.25 0.13 0.10 0.06 0.07 0.06 0.04 0.00 0.00 0.00 0.00 0.00 0.00 0.00 0.00 0.00
0.16 0.21 0.19 0.18 0.19 0.24 0.52 0.49 0.08 0.16 0.40 0.14 0.00 0.00 0.01 0.09 0.07 0.15 0.30 0.07 0.08 0.14 0.23 0.49 0.43 0.28 0.18 0.15 0.13 0.14 0.18 0.14 0.15 0.06 0.01 0.00 0.00 0.00 0.00 0.00 0.00 0.00 0.00 0.00
0.15 0.21 0.24 0.19 0.20 0.26 0.55 0.57 0.22 0.12 0.25 0.18 0.02 0.01 0.03 0.21 0.23 0.14 0.20 0.28 0.15 0.15 0.29 0.43 0.23 0.12 0.08 0.08 0.06 0.04 0.03 0.09 0.16 0.10 0.02 0.01 0.00 0.00 0.00 0.00 0.00 0.00 0.00 0.00
0.15 0.20 0.23 0.27 0.23 0.41 0.77 0.57 0.23 0.10 0.13 0.17 0.07 0.03 0.04 0.14 0.36 0.21 0.19 0.33 0.37 0.33 0.30 0.40 0.21 0.05 0.07 0.04 0.03 0.01 0.00 0.00 0.00 0.01 0.02 0.04 0.02 0.01 0.01 0.00 0.00 0.00 0.00 0.00
0.21 0.22 0.23 0.27 0.40 0.80 0.95 1.13 0.65 0.28 0.19 0.31 0.22 0.07 0.04 0.06 0.18 0.24 0.38 0.45 0.56 0.50 0.40 0.18 0.09 0.03 0.13 0.13 0.04 0.00 0.00 0.00 0.00 0.00 0.00 0.00 0.00 0.00 0.01 0.02 0.01 0.00 0.00 0.00
0.34 0.30 0.29 0.41 0.58 0.49 0.46 0.31 0.16 0.14 0.12 0.37 0.57 0.34 0.22 0.05 0.03 0.06 0.21 0.39 0.60 0.70 0.53 0.32 0.08 0.02 0.14 0.13 0.02 0.00 0.00 0.00 0.00 0.00 0.00 0.00 0.00 0.00 0.00 0.00 0.00 0.01 0.01 0.00
0.45 0.37 0.54 0.58 0.46 0.38 0.22 0.06 0.06 0.06 0.14 0.27 0.47 0.46 0.70 0.26 0.14 0.13 0.07 0.15 0.32 0.43 0.41 0.25 0.14 0.06 0.09 0.05 0.00 0.00 0.00 0.00 0.00 0.00 0.00 0.00 0.00 0.00 0.00 0.00 0.00 0.00 0.00 0.00
0.28 0.45 0.50 0.49 0.29 0.16 0.12 0.05 0.08 0.10 0.11 0.25 0.18 0.24 0.65 0.50 0.45 0.28 0.18 0.17 0.16 0.10 0.15 0.15 0.11 0.14 0.06 0.00 0.00 0.00 0.00 0.00 0.00 0.00 0.00 0.00 0.00 0.00 0.00 0.00 0.00 0.00 0.01 0.02
0.20 0.33 0.29 0.45 0.28 0.10 0.17 0.32 0.30 0.31 0.22 0.33 0.22 0.11 0.17 0.30 0.39 0.37 0.26 0.14 0.07 0.03 0.01 0.05 0.09 0.04 0.01 0.01 0.00 0.00 0.00 0.00 0.00 0.00 0.00 0.00 0.00 0.00 0.01 0.02 0.03 0.04 0.04 0.03
0.30 0.28 0.48 0.44 0.29 0.24 0.30 0.37 0.26 0.20 0.07 0.06 0.17 0.15 0.16 0.13 0.16 0.27 0.16 0.07 0.02 0.01 0.01 0.01 0.03 0.06 0.02 0.00 0.00 0.00 0.00 0.00 0.00 0.00 0.00 0.01 0.02 0.00 0.00 0.01 0.04 0.06 0.08 0.07
0.23 0.31 0.27 0.22 0.15 0.11 0.12 0.23 0.10 0.05 0.02 0.00 0.07 0.10 0.06 0.06 0.09 0.14 0.05 0.03 0.01 0.01 0.00 0.01 0.00 0.00 0.00 0.00 0.00 0.00 0.00 0.00 0.00 0.00 0.00 0.00 0.02 0.03 0.01 0.01 0.03 0.06 0.08 0.09
0.14 0.16 0.09 0.18 0.13 0.07 0.04 0.03 0.07 0.00 0.00 0.00 0.01 0.10 0.07 0.04 0.02 0.01 0.01 0.00 0.00 0.00 0.00 0.00 0.00 0.00 0.00 0.00 0.00 0.01 0.01 0.00 0.00 0.00 0.00 0.00 0.01 0.02 0.01 0.01 0.01 0.02 0.03 0.03
0.06 0.05 0.05 0.11 0.03 0.01 0.00 0.00 0.00 0.00 0.00 0.00 0.02 0.03 0.00 0.00 0.00 0.00 0.00 0.00 0.00 0.01 0.00 0.00 0.00 0.00 0.00 0.00 0.00 0.00 0.00 0.00 0.00 0.00 0.00 0.00 0.00 0.00 0.00 0.01 0.01 0.01 0.02 0.01
0.00 0.00 0.01 0.00 0.01 0.01 0.01 0.01 0.00 0.00 0.00 0.00 0.01 0.01 0.01 0.01 0.00 0.00 0.00 0.00 0.00 0.00 0.00 0.00 0.00 0.00 0.00 0.00 0.00 0.00 0.00 0.00 0.00 0.00 0.00 0.00 0.00 0.00 0.00 0.01 0.06 0.08 0.13 0.15
0.00 0.00 0.00 0.00 0.00 0.00 0.00 0.00 0.00 0.00 0.01 0.01 0.01 0.01 0.01 0.00 0.00 0.00 0.00 0.00 0.00 0.00 0.00 0.00 0.00 0.00 0.00 0.00 0.00 0.00 0.00 0.00 0.00 0.00 0.01 0.02 0.04 0.05 0.05 0.04 0.02 0.01 0.02 0.07
0.00 0.00 0.02 0.02 0.00 0.00 0.00 0.00 0.00 0.00 0.01 0.01 0.00 0.00 0.00 0.00 0.00 0.00 0.00 0.00 0.00 0.00 0.00 0.00 0.00 0.00 0.00 0.00 0.00 0.00 0.00 0.00 0.00 0.00 0.00 0.01 0.02 0.02 0.02 0.03 0.03 0.02 0.00 0.00

GFSNW_prec_precacc12_168.txt.gz
Total_Precipitation_Accumulation
0.12 0.15 0.16 0.14 0.11 0.14 0.28 0.37 0.35 0.07 0.12 0.25 0.47 0.44 0.13 0.02 0.01 0.06 0.12 0.05 0.03 0.03 0.04 0.04 0.02 0.00 0.04 0.04 0.01 0.05 0.16 0.35 0.30 0.19 0.11 0.10 0.18 0.38 0.81 0.98 0.68 0.36 0.19 0.09
0.08 0.14 0.17 0.24 0.27 0.16 0.19 0.27 0.16 0.08 0.26 0.32 0.16 0.07 0.06 0.12 0.05 0.04 0.25 0.18 0.14 0.10 0.05 0.08 0.05 0.04 0.10 0.04 0.02 0.04 0.07 0.18 0.20 0.09 0.14 0.22 0.19 0.20 0.50 0.81 0.98 1.06 0.91 0.46
0.02 0.07 0.17 0.25 0.34 0.50 0.42 0.29 0.24 0.16 0.20 0.31 0.17 0.09 0.08 0.10 0.06 0.08 0.11 0.21 0.08 0.11 0.14 0.16 0.25 0.10 0.10 0.09 0.02 0.01 0.04 0.09 0.16 0.16 0.11 0.17 0.21 0.13 0.31 0.49 0.58 0.42 0.32 0.15
0.01 0.03 0.10 0.24 0.31 0.43 0.58 0.31 0.12 0.07 0.09 0.04 0.07 0.13 0.14 0.06 0.07 0.15 0.15 0.15 0.03 0.08 0.18 0.14 0.20 0.13 0.15 0.16 0.15 0.11 0.14 0.10 0.10 0.10 0.14 0.18 0.20 0.14 0.17 0.32 0.26 0.30 0.09 0.04
0.03 0.03 0.05 0.18 0.24 0.57 0.68 0.16 0.04 0.02 0.05 0.01 0.04 0.06 0.08 0.07 0.07 0.27 0.25 0.27 0.10 0.13 0.17 0.18 0.10 0.15 0.19 0.21 0.17 0.17 0.30 0.26 0.14 0.07 0.02 0.08 0.13 0.05 0.03 0.06 0.05 0.06 0.01 0.01
0.03 0.02 0.03 0.13 0.20 0.44 0.61 0.13 0.03 0.04 0.04 0.03 0.05 0.05 0.02 0.01 0.06 0.10 0.12 0.17 0.10 0.07 0.19 0.10 0.02 0.03 0.04 0.05 0.06 0.11 0.23 0.19 0.19 0.12 0.04 0.13 0.15 0.01 0.00 0.00 0.00 0.00 0.00 0.00
0.03 0.03 0.02 0.07 0.16 0.09 0.05 0.01 0.04 0.09 0.09 0.04 0.04 0.03 0.02 0.01 0.02 0.04 0.04 0.06 0.12 0.03 0.03 0.01 0.01 0.02 0.02 0.02 0.01 0.07 0.17 0.21 0.35 0.24 0.10 0.23 0.05 0.02 0.04 0.04 0.03 0.01 0.00 0.00
0.04 0.03 0.04 0.06 0.10 0.11 0.08 0.05 0.07 0.10 0.06 0.06 0.04 0.02 0.01 0.01 0.00 0.00 0.00 0.00 0.00 0.01 0.02 0.11 0.09 0.03 0.03 0.00 0.00 0.01 0.05 0.13 0.26 0.25 0.17 0.11 0.00 0.00 0.01 0.03 0.02 0.00 0.00 0.00
0.06 0.04 0.03 0.06 0.07 0.09 0.09 0.08 0.08 0.10 0.07 0.03 0.02 0.03 0.01 0.01 0.01 0.01 0.00 0.00 0.00 0.02 0.08 0.22 0.19 0.09 0.07 0.06 0.04 0.01 0.01 0.06 0.18 0.17 0.14 0.06 0.00 0.00 0.00 0.01 0.01 0.00 0.00 0.00
0.13 0.07 0.04 0.05 0.08 0.08 0.11 0.08 0.05 0.12 0.09 0.01 0.00 0.01 0.01 0.01 0.02 0.02 0.01 0.02 0.02 0.06 0.10 0.20 0.20 0.10 0.04 0.04 0.04 0.10 0.15 0.30 0.31 0.14 0.12 0.03 0.00 0.00 0.00 0.05 0.01 0.00 0.00 0.00
0.22 0.13 0.08 0.07 0.06 0.08 0.13 0.10 0.03 0.07 0.07 0.01 0.00 0.00 0.00 0.00 0.01 0.05 0.09 0.10 0.11 0.17 0.20 0.10 0.08 0.13 0.08 0.05 0.02 0.05 0.11 0.24 0.27 0.23 0.26 0.10 0.00 0.01 0.01 0.00 0.00 0.00 0.00 0.00
0.21 0.21 0.10 0.08 0.09 0.08 0.15 0.21 0.05 0.04 0.12 0.05 0.00 0.00 0.00 0.00 0.00 0.02 0.06 0.10 0.12 0.23 0.35 0.39 0.31 0.24 0.18 0.11 0.08 0.04 0.07 0.15 0.22 0.30 0.11 0.01 0.00 0.01 0.01 0.01 0.00 0.00 0.01 0.02
0.12 0.25 0.15 0.10 0.11 0.11 0.21 0.32 0.11 0.15 0.36 0.13 0.01 0.00 0.00 0.00 0.00 0.00 0.01 0.01 0.02 0.05 0.16 0.48 0.43 0.28 0.19 0.14 0.09 0.11 0.10 0.06 0.10 0.09 0.03 0.01 0.01 0.02 0.05 0.01 0.00 0.00 0.00 0.00
0.08 0.18 0.20 0.11 0.12 0.16 0.33 0.53 0.25 0.13 0.22 0.15 0.02 0.00 0.00 0.00 0.00 0.00 0.00 0.00 0.01 0.06 0.20 0.36 0.26 0.14 0.09 0.09 0.08 0.08 0.06 0.07 0.05 0.06 0.03 0.02 0.01 0.00 0.00 0.00 0.00 0.00 0.00 0.00
0.07 0.13 0.23 0.14 0.15 0.31 0.63 0.60 0.27 0.11 0.11 0.19 0.07 0.01 0.00 0.00 0.00 0.00 0.00 0.00 0.02 0.07 0.18 0.31 0.22 0.09 0.12 0.06 0.05 0.02 0.00 0.01 0.08 0.12 0.08 0.15 0.21 0.13 0.01 0.00 0.00 0.00 0.00 0.00
0.10 0.14 0.28 0.23 0.32 0.76 1.17 1.41 0.78 0.31 0.20 0.34 0.12 0.02 0.00 0.00 0.00 0.00 0.00 0.01 0.09 0.15 0.20 0.17 0.12 0.05 0.22 0.20 0.06 0.01 0.02 0.02 0.02 0.03 0.01 0.02 0.08 0.03 0.01 0.02 0.01 0.01 0.01 0.01
0.24 0.24 0.35 0.54 0.62 0.86 0.95 0.51 0.20 0.18 0.15 0.32 0.22 0.04 0.07 0.03 0.01 0.02 0.02 0.07 0.28 0.41 0.39 0.32 0.12 0.05 0.23 0.18 0.03 0.01 0.02 0.02 0.01 0.04 0.13 0.08 0.01 0.00 0.00 0.00 0.00 0.02 0.04 0.07
0.48 0.41 0.66 0.89 0.90 1.02 0.49 0.09 0.03 0.08 0.25 0.39 0.26 0.06 0.10 0.19 0.14 0.15 0.13 0.23 0.39 0.53 0.41 0.28 0.19 0.11 0.21 0.14 0.00 0.00 0.00 0.00 0.00 0.00 0.01 0.01 0.00 0.00 0.00 0.00 0.00 0.00 0.03 0.03
0.45 0.63 0.77 1.02 0.78 0.59 0.39 0.11 0.10 0.11 0.18 0.24 0.10 0.03 0.17 0.41 0.45 0.34 0.33 0.30 0.39 0.20 0.21 0.16 0.21 0.26 0.18 0.02 0.00 0.01 0.01 0.02 0.01 0.00 0.00 0.00 0.00 0.00 0.00 0.00 0.00 0.00 0.00 0.02
0.17 0.29 0.36 0.67 0.45 0.19 0.18 0.36 0.37 0.31 0.19 0.09 0.04 0.04 0.12 0.26 0.40 0.47 0.53 0.30 0.18 0.17 0.06 0.13 0.18 0.06 0.02 0.01 0.00 0.01 0.02 0.01 0.01 0.00 0.00 0.00 0.00 0.00 0.00 0.00 0.00 0.00 0.00 0.02
0.09 0.14 0.17 0.30 0.20 0.16 0.16 0.14 0.09 0.06 0.04 0.02 0.00 0.01 0.13 0.15 0.19 0.31 0.32 0.32 0.13 0.15 0.13 0.07 0.12 0.08 0.02 0.01 0.00 0.00 0.01 0.00 0.00 0.00 0.00 0.00 0.00 0.00 0.00 0.00 0.00 0.00 0.00 0.02
0.05 0.07 0.14 0.14 0.12 0.07 0.08 0.11 0.05 0.02 0.01 0.00 0.01 0.05 0.06 0.08 0.10 0.20 0.16 0.19 0.14 0.20 0.09 0.03 0.06 0.08 0.01 0.00 0.00 0.00 0.00 0.00 0.00 0.00 0.00 0.00 0.00 0.00 0.00 0.00 0.00 0.00 0.01 0.04
0.12 0.15 0.08 0.17 0.13 0.10 0.04 0.04 0.08 0.00 0.00 0.00 0.02 0.13 0.11 0.08 0.05 0.17 0.19 0.11 0.11 0.06 0.05 0.03 0.06 0.02 0.00 0.00 0.00 0.00 0.00 0.00 0.00 0.00 0.00 0.00 0.00 0.00 0.00 0.00 0.00 0.00 0.01 0.02
0.09 0.06 0.07 0.14 0.07 0.03 0.01 0.01 0.02 0.02 0.00 0.01 0.05 0.18 0.10 0.12 0.12 0.06 0.04 0.03 0.02 0.03 0.02 0.02 0.04 0.00 0.00 0.00 0.00 0.00 0.00 0.00 0.00 0.00 0.00 0.00 0.00 0.00 0.00 0.00 0.01 0.01 0.01 0.00
0.06 0.05 0.10 0.08 0.05 0.06 0.07 0.06 0.05 0.04 0.02 0.02 0.10 0.10 0.15 0.14 0.07 0.00 0.01 0.01 0.01 0.00 0.04 0.04 0.01 0.00 0.00 0.00 0.00 0.00 0.00 0.00 0.00 0.00 0.00 0.00 0.00 0.00 0.00 0.01 0.04 0.07 0.13 0.15
0.06 0.05 0.03 0.05 0.11 0.09 0.02 0.01 0.02 0.02 0.00 0.02 0.15 0.13 0.16 0.06 0.01 0.00 0.00 0.00 0.01 0.03 0.04 0.00 0.00 0.00 0.00 0.00 0.00 0.00 0.00 0.00 0.00 0.00 0.00 0.00 0.00 0.01 0.01 0.01 0.01 0.01 0.02 0.07
0.03 0.02 0.01 0.02 0.14 0.21 0.09 0.02 0.01 0.01 0.01 0.06 0.13 0.13 0.02 0.02 0.01 0.00 0.00 0.03 0.04 0.01 0.00 0.00 0.00 0.00 0.00 0.00 0.00 0.00 0.00 0.00 0.00 0.00 0.00 0.00 0.01 0.01 0.00 0.02 0.03 0.01 0.01 0.00

GFSNW_prec_precacc12_171.txt.gz
Total_Precipitation_Accumulation
0.06 0.10 0.13 0.12 0.11 0.14 0.29 0.37 0.36 0.07 0.12 0.25 0.48 0.29 0.08 0.02 0.01 0.07 0.16 0.12 0.03 0.03 0.05 0.05 0.03 0.01 0.08 0.05 0.02 0.05 0.17 0.41 0.28 0.13 0.07 0.10 0.20 0.39 0.72 1.12 0.80 0.49 0.31 0.16
0.03 0.06 0.12 0.21 0.27 0.17 0.20 0.31 0.16 0.09 0.25 0.36 0.18 0.07 0.04 0.07 0.04 0.05 0.33 0.24 0.15 0.09 0.05 0.10 0.05 0.05 0.14 0.07 0.07 0.11 0.09 0.19 0.18 0.04 0.06 0.13 0.20 0.24 0.51 0.90 1.05 1.17 1.01 0.52
0.00 0.03 0.09 0.17 0.30 0.54 0.45 0.33 0.28 0.18 0.22 0.31 0.27 0.16 0.09 0.08 0.05 0.08 0.15 0.30 0.13 0.14 0.13 0.11 0.18 0.07 0.10 0.15 0.10 0.07 0.09 0.09 0.16 0.18 0.12 0.19 0.23 0.15 0.33 0.66 0.72 0.54 0.42 0.19
0.02 0.01 0.06 0.17 0.27 0.49 0.73 0.46 0.19 0.08 0.10 0.04 0.08 0.21 0.28 0.19 0.12 0.16 0.18 0.15 0.05 0.09 0.18 0.12 0.12 0.08 0.11 0.14 0.17 0.16 0.19 0.10 0.07 0.03 0.03 0.10 0.19 0.14 0.14 0.23 0.21 0.31 0.10 0.06
0.04 0.03 0.04 0.12 0.20 0.51 0.77 0.34 0.12 0.05 0.06 0.01 0.04 0.07 0.11 0.09 0.13 0.31 0.26 0.28 0.15 0.13 0.17 0.18 0.10 0.13 0.14 0.13 0.15 0.24 0.43 0.35 0.14 0.05 0.01 0.02 0.05 0.04 0.03 0.06 0.06 0.07 0.02 0.01
0.03 0.03 0.03 0.08 0.17 0.41 0.60 0.17 0.04 0.08 0.07 0.03 0.07 0.09 0.06 0.03 0.03 0.12 0.09 0.14 0.09 0.06 0.18 0.10 0.02 0.00 0.01 0.02 0.03 0.07 0.29 0.29 0.25 0.11 0.04 0.08 0.06 0.00 0.00 0.00 0.00 0.02 0.02 0.00
0.03 0.03 0.03 0.06 0.13 0.08 0.05 0.01 0.06 0.14 0.12 0.05 0.05 0.04 0.03 0.02 0.02 0.03 0.02 0.04 0.05 0.02 0.03 0.00 0.00 0.00 0.00 0.00 0.00 0.01 0.05 0.08 0.20 0.14 0.06 0.17 0.04 0.02 0.04 0.04 0.03 0.01 0.00 0.00
0.05 0.03 0.03 0.05 0.08 0.07 0.08 0.06 0.09 0.17 0.11 0.08 0.06 0.04 0.01 0.01 0.00 0.00 0.00 0.00 0.00 0.00 0.00 0.03 0.05 0.02 0.03 0.00 0.00 0.00 0.01 0.04 0.12 0.12 0.10 0.09 0.00 0.00 0.01 0.03 0.02 0.01 0.04 0.07
0.07 0.05 0.03 0.06 0.07 0.06 0.09 0.10 0.10 0.14 0.15 0.04 0.06 0.05 0.03 0.02 0.02 0.01 0.00 0.00 0.00 0.00 0.00 0.06 0.11 0.08 0.07 0.07 0.04 0.01 0.01 0.05 0.14 0.10 0.10 0.05 0.00 0.00 0.00 0.02 0.01 0.00 0.00 0.01
0.12 0.08 0.05 0.05 0.07 0.05 0.10 0.09 0.10 0.17 0.15 0.01 0.01 0.03 0.03 0.02 0.02 0.02 0.01 0.02 0.02 0.04 0.04 0.05 0.06 0.06 0.04 0.04 0.04 0.10 0.20 0.53 0.48 0.23 0.17 0.03 0.00 0.00 0.00 0.08 0.03 0.01 0.01 0.01
0.19 0.13 0.10 0.07 0.05 0.06 0.10 0.10 0.07 0.14 0.16 0.01 0.00 0.00 0.00 0.00 0.01 0.05 0.09 0.09 0.08 0.13 0.16 0.06 0.05 0.07 0.07 0.06 0.02 0.05 0.10 0.26 0.35 0.31 0.37 0.15 0.05 0.11 0.12 0.05 0.00 0.01 0.01 0.00
0.18 0.19 0.13 0.10 0.06 0.07 0.09 0.12 0.05 0.09 0.15 0.05 0.00 0.00 0.00 0.00 0.00 0.02 0.05 0.11 0.12 0.15 0.20 0.24 0.28 0.27 0.19 0.11 0.07 0.05 0.08 0.18 0.25 0.32 0.23 0.06 0.02 0.07 0.17 0.09 0.08 0.11 0.02 0.02
0.10 0.23 0.18 0.13 0.09 0.07 0.10 0.09 0.09 0.14 0.21 0.08 0.01 0.00 0.00 0.00 0.00 0.00 0.01 0.00 0.02 0.04 0.07 0.10 0.13 0.11 0.17 0.14 0.10 0.13 0.12 0.06 0.11 0.10 0.03 0.01 0.01 0.03 0.08 0.06 0.05 0.06 0.02 0.01
0.06 0.16 0.25 0.15 0.10 0.10 0.11 0.21 0.15 0.08 0.11 0.07 0.01 0.00 0.00 0.00 0.00 0.00 0.00 0.00 0.01 0.04 0.09 0.17 0.11 0.06 0.04 0.08 0.08 0.08 0.06 0.07 0.05 0.03 0.01 0.01 0.01 0.01 0.03 0.05 0.03 0.01 0.00 0.00
0.06 0.09 0.27 0.17 0.11 0.14 0.23 0.35 0.17 0.06 0.07 0.18 0.08 0.01 0.00 0.00 0.00 0.00 0.00 0.00 0.01 0.05 0.11 0.19 0.09 0.05 0.09 0.05 0.05 0.02 0.00 0.01 0.08 0.11 0.05 0.12 0.20 0.24 0.20 0.20 0.07 0.00 0.01 0.00
0.07 0.09 0.26 0.20 0.17 0.39 0.88 1.09 0.49 0.18 0.18 0.33 0.13 0.03 0.00 0.00 0.00 0.00 0.00 0.00 0.04 0.11 0.14 0.11 0.05 0.03 0.21 0.22 0.06 0.01 0.02 0.02 0.02 0.03 0.01 0.02 0.09 0.10 0.06 0.08 0.03 0.03 0.03 0.01
0.10 0.12 0.28 0.42 0.37 0.68 0.91 0.45 0.17 0.16 0.16 0.32 0.22 0.04 0.02 0.00 0.00 0.01 0.01 0.05 0.10 0.16 0.23 0.16 0.05 0.05 0.26 0.21 0.04 0.01 0.02 0.02 0.01 0.04 0.14 0.12 0.02 0.01 0.08 0.06 0.03 0.05 0.06 0.07
0.22 0.30 0.59 0.88 0.86 0.95 0.52 0.09 0.03 0.08 0.25 0.38 0.24 0.06 0.03 0.01 0.06 0.12 0.10 0.17 0.20 0.26 0.19 0.10 0.08 0.09 0.23 0.16 0.00 0.00 0.00 0.00 0.00 0.00 0.01 0.05 0.02 0.00 0.01 0.00 0.00 0.01 0.05 0.03
0.42 0.68 1.03 1.60 1.15 0.65 0.47 0.12 0.09 0.09 0.18 0.23 0.09 0.02 0.06 0.05 0.20 0.27 0.26 0.22 0.36 0.18 0.16 0.08 0.19 0.26 0.19 0.02 0.00 0.01 0.01 0.02 0.02 0.01 0.02 0.04 0.01 0.00 0.00 0.00 0.00 0.00 0.00 0.01
0.18 0.45 0.66 1.10 0.74 0.21 0.30 0.57 0.48 0.32 0.17 0.09 0.04 0.00 0.04 0.06 0.18 0.40 0.46 0.28 0.19 0.20 0.07 0.12 0.18 0.06 0.01 0.01 0.00 0.01 0.02 0.02 0.10 0.16 0.07 0.01 0.01 0.00 0.00 0.00 0.00 0.00 0.00 0.00
0.13 0.23 0.29 0.52 0.33 0.20 0.30 0.36 0.19 0.09 0.04 0.01 0.00 0.00 0.02 0.04 0.10 0.25 0.31 0.32 0.15 0.19 0.15 0.11 0.14 0.09 0.04 0.01 0.00 0.00 0.03 0.08 0.08 0.06 0.03 0.00 0.00 0.00 0.00 0.00 0.00 0.00 0.00 0.00
0.02 0.04 0.18 0.23 0.18 0.10 0.14 0.14 0.08 0.01 0.00 0.00 0.00 0.00 0.00 0.03 0.06 0.19 0.16 0.20 0.16 0.25 0.23 0.09 0.08 0.20 0.04 0.00 0.00 0.00 0.00 0.00 0.00 0.00 0.00 0.00 0.00 0.00 0.00 0.00 0.00 0.00 0.00 0.00
0.02 0.03 0.02 0.06 0.07 0.10 0.06 0.05 0.03 0.00 0.00 0.00 0.01 0.10 0.08 0.07 0.05 0.18 0.20 0.21 0.16 0.10 0.09 0.06 0.12 0.07 0.04 0.00 0.00 0.00 0.00 0.00 0.00 0.00 0.00 0.00 0.00 0.00 0.00 0.00 0.00 0.00 0.00 0.00
0.10 0.05 0.04 0.12 0.07 0.02 0.01 0.01 0.02 0.02 0.01 0.01 0.05 0.19 0.11 0.12 0.15 0.09 0.09 0.06 0.03 0.04 0.05 0.08 0.08 0.01 0.00 0.00 0.00 0.00 0.00 0.00 0.00 0.00 0.00 0.00 0.00 0.00 0.00 0.00 0.00 0.00 0.01 0.00
0.07 0.07 0.11 0.08 0.05 0.06 0.08 0.06 0.06 0.05 0.04 0.03 0.11 0.11 0.15 0.17 0.22 0.02 0.01 0.01 0.01 0.02 0.25 0.11 0.02 0.00 0.00 0.00 0.00 0.00 0.00 0.00 0.00 0.00 0.00 0.00 0.00 0.00 0.00 0.01 0.00 0.00 0.04 0.10
0.06 0.07 0.05 0.07 0.12 0.10 0.02 0.01 0.03 0.04 0.02 0.03 0.16 0.14 0.20 0.14 0.08 0.01 0.00 0.01 0.04 0.09 0.07 0.01 0.00 0.00 0.00 0.00 0.00 0.00 0.00 0.00 0.00 0.00 0.00 0.00 0.00 0.00 0.00 0.00 0.00 0.00 0.01 0.06
0.05 0.03 0.01 0.03 0.16 0.34 0.16 0.03 0.04 0.03 0.01 0.06 0.14 0.19 0.07 0.05 0.03 0.01 0.02 0.06 0.08 0.06 0.02 0.00 0.00 0.00 0.00 0.00 0.00 0.00 0.00 0.01 0.00 0.00 0.00 0.00 0.00 0.00 0.00 0.00 0.00 0.00 0.00 0.01

GFSNW_prec_precacc12_174.txt.gz
Total_Precipitation_Accumulation
0.04 0.04 0.08 0.08 0.09 0.08 0.19 0.34 0.35 0.07 0.10 0.25 0.42 0.24 0.03 0.01 0.01 0.06 0.16 0.12 0.04 0.04 0.04 0.04 0.03 0.04 0.17 0.18 0.16 0.16 0.26 0.46 0.35 0.12 0.05 0.09 0.22 0.41 0.72 1.33 1.12 0.81 0.60 0.40
0.04 0.05 0.07 0.15 0.24 0.15 0.17 0.30 0.16 0.09 0.25 0.36 0.17 0.07 0.04 0.04 0.02 0.04 0.31 0.26 0.21 0.15 0.11 0.15 0.05 0.06 0.17 0.11 0.11 0.16 0.18 0.30 0.27 0.05 0.06 0.12 0.24 0.35 0.60 0.89 0.95 1.03 1.08 0.77
0.01 0.03 0.06 0.10 0.26 0.51 0.43 0.34 0.29 0.18 0.21 0.30 0.27 0.16 0.09 0.07 0.03 0.03 0.13 0.28 0.14 0.19 0.18 0.12 0.13 0.02 0.08 0.15 0.10 0.09 0.14 0.16 0.24 0.24 0.10 0.18 0.22 0.14 0.27 0.55 0.55 0.49 0.41 0.31
0.03 0.01 0.02 0.08 0.15 0.45 0.73 0.48 0.20 0.09 0.11 0.04 0.08 0.21 0.27 0.19 0.16 0.20 0.18 0.14 0.06 0.13 0.23 0.11 0.09 0.05 0.02 0.04 0.08 0.11 0.24 0.18 0.13 0.08 0.03 0.04 0.10 0.09 0.10 0.18 0.18 0.33 0.13 0.07
0.04 0.05 0.03 0.05 0.13 0.34 0.66 0.39 0.14 0.05 0.06 0.01 0.05 0.07 0.11 0.09 0.14 0.32 0.37 0.35 0.24 0.12 0.17 0.18 0.09 0.12 0.12 0.07 0.05 0.12 0.30 0.28 0.17 0.10 0.02 0.03 0.04 0.01 0.01 0.03 0.04 0.04 0.01 0.01
0.03 0.03 0.05 0.06 0.11 0.31 0.48 0.20 0.08 0.12 0.08 0.03 0.08 0.09 0.06 0.05 0.06 0.15 0.13 0.16 0.18 0.06 0.14 0.09 0.02 0.00 0.00 0.01 0.02 0.06 0.23 0.25 0.27 0.16 0.04 0.08 0.05 0.00 0.00 0.00 0.01 0.02 0.02 0.00
0.03 0.03 0.04 0.07 0.09 0.04 0.04 0.02 0.06 0.17 0.14 0.05 0.05 0.04 0.04 0.03 0.04 0.08 0.04 0.02 0.03 0.01 0.02 0.00 0.00 0.00 0.00 0.00 0.00 0.01 0.03 0.05 0.18 0.12 0.03 0.14 0.04 0.02 0.04 0.04 0.03 0.01 0.00 0.00
0.06 0.03 0.03 0.06 0.07 0.03 0.07 0.06 0.09 0.18 0.12 0.08 0.06 0.04 0.02 0.01 0.01 0.01 0.00 0.00 0.00 0.00 0.00 0.00 0.01 0.01 0.02 0.00 0.00 0.00 0.00 0.04 0.11 0.11 0.05 0.05 0.00 0.00 0.01 0.04 0.02 0.02 0.04 0.07
0.09 0.06 0.03 0.06 0.07 0.04 0.07 0.10 0.11 0.14 0.16 0.06 0.08 0.07 0.03 0.02 0.02 0.01 0.00 0.00 0.00 0.00 0.00 0.01 0.02 0.03 0.05 0.06 0.04 0.01 0.01 0.05 0.14 0.11 0.08 0.03 0.00 0.00 0.00 0.02 0.01 0.00 0.02 0.03
0.12 0.10 0.06 0.05 0.08 0.05 0.10 0.09 0.10 0.18 0.16 0.02 0.02 0.04 0.03 0.02 0.02 0.02 0.01 0.02 0.02 0.01 0.02 0.03 0.03 0.02 0.01 0.03 0.04 0.08 0.19 0.54 0.65 0.35 0.26 0.04 0.00 0.00 0.00 0.08 0.03 0.02 0.03 0.04
0.18 0.13 0.13 0.10 0.06 0.06 0.11 0.09 0.08 0.14 0.16 0.02 0.01 0.01 0.00 0.00 0.01 0.05 0.09 0.09 0.07 0.11 0.13 0.05 0.03 0.04 0.03 0.03 0.01 0.03 0.08 0.24 0.38 0.44 0.56 0.26 0.08 0.14 0.21 0.18 0.14 0.10 0.04 0.03
0.16 0.19 0.13 0.16 0.10 0.08 0.09 0.09 0.05 0.11 0.19 0.10 0.01 0.00 0.00 0.00 0.00 0.02 0.05 0.11 0.12 0.12 0.17 0.21 0.21 0.17 0.12 0.07 0.06 0.04 0.09 0.22 0.31 0.41 0.29 0.11 0.04 0.12 0.24 0.16 0.17 0.17 0.08 0.03
0.10 0.21 0.16 0.17 0.14 0.10 0.07 0.04 0.08 0.13 0.15 0.06 0.00 0.00 0.00 0.00 0.00 0.00 0.01 0.00 0.02 0.03 0.05 0.07 0.05 0.02 0.03 0.03 0.04 0.09 0.10 0.05 0.13 0.11 0.03 0.01 0.02 0.03 0.08 0.07 0.08 0.23 0.12 0.04
0.08 0.16 0.22 0.19 0.18 0.12 0.08 0.06 0.09 0.07 0.06 0.03 0.00 0.00 0.00 0.00 0.00 0.00 0.00 0.00 0.00 0.02 0.06 0.11 0.06 0.03 0.01 0.01 0.01 0.04 0.03 0.05 0.05 0.03 0.01 0.01 0.01 0.01 0.03 0.06 0.08 0.05 0.02 0.02
0.07 0.11 0.24 0.21 0.21 0.17 0.16 0.11 0.10 0.06 0.04 0.13 0.08 0.01 0.00 0.00 0.00 0.00 0.00 0.00 0.01 0.04 0.07 0.09 0.04 0.04 0.06 0.02 0.01 0.00 0.00 0.01 0.08 0.11 0.05 0.12 0.20 0.23 0.19 0.20 0.07 0.01 0.01 0.00
0.07 0.10 0.23 0.27 0.25 0.29 0.51 0.59 0.18 0.08 0.11 0.17 0.07 0.03 0.00 0.00 0.00 0.00 0.00 0.00 0.04 0.09 0.12 0.10 0.04 0.02 0.13 0.11 0.02 0.00 0.02 0.02 0.02 0.03 0.01 0.02 0.09 0.10 0.05 0.06 0.03 0.06 0.06 0.01
0.10 0.12 0.22 0.37 0.27 0.52 0.64 0.28 0.06 0.04 0.09 0.22 0.16 0.03 0.01 0.00 0.00 0.00 0.01 0.03 0.08 0.14 0.18 0.12 0.05 0.04 0.16 0.20 0.05 0.01 0.02 0.02 0.01 0.04 0.14 0.12 0.02 0.01 0.08 0.13 0.07 0.08 0.09 0.07
0.15 0.17 0.36 0.64 0.73 0.71 0.33 0.05 0.01 0.02 0.15 0.33 0.23 0.06 0.03 0.00 0.01 0.04 0.07 0.15 0.17 0.21 0.12 0.06 0.06 0.09 0.21 0.17 0.01 0.00 0.00 0.00 0.00 0.00 0.01 0.05 0.02 0.00 0.01 0.00 0.01 0.02 0.05 0.03
0.34 0.55 1.05 1.75 1.23 0.60 0.38 0.09 0.08 0.08 0.17 0.22 0.09 0.02 0.06 0.02 0.02 0.08 0.17 0.16 0.26 0.12 0.09 0.02 0.16 0.24 0.20 0.02 0.00 0.01 0.01 0.02 0.02 0.01 0.02 0.04 0.02 0.00 0.00 0.00 0.00 0.00 0.00 0.01
0.32 0.78 0.97 1.27 0.76 0.20 0.30 0.64 0.53 0.32 0.16 0.07 0.03 0.00 0.04 0.03 0.03 0.10 0.27 0.16 0.13 0.17 0.05 0.09 0.15 0.05 0.02 0.01 0.00 0.01 0.02 0.02 0.11 0.17 0.10 0.05 0.04 0.01 0.00 0.00 0.00 0.00 0.00 0.00
0.23 0.39 0.45 0.66 0.37 0.25 0.36 0.49 0.28 0.12 0.05 0.01 0.00 0.00 0.02 0.04 0.04 0.05 0.17 0.26 0.14 0.19 0.14 0.16 0.15 0.06 0.18 0.06 0.01 0.00 0.03 0.09 0.16 0.14 0.29 0.12 0.02 0.00 0.00 0.00 0.00 0.00 0.00 0.00
0.03 0.06 0.25 0.32 0.35 0.22 0.18 0.16 0.09 0.01 0.00 0.00 0.00 0.00 0.00 0.03 0.02 0.08 0.12 0.18 0.16 0.24 0.28 0.17 0.14 0.46 0.17 0.00 0.00 0.00 0.00 0.01 0.01 0.01 0.00 0.00 0.00 0.00 0.00 0.00 0.00 0.00 0.00 0.00
0.01 0.01 0.02 0.07 0.15 0.13 0.06 0.05 0.02 0.00 0.00 0.00 0.01 0.04 0.04 0.04 0.03 0.16 0.19 0.21 0.18 0.12 0.12 0.12 0.23 0.23 0.08 0.01 0.00 0.00 0.00 0.00 0.00 0.00 0.00 0.00 0.00 0.00 0.00 0.00 0.00 0.00 0.00 0.00
0.05 0.01 0.01 0.04 0.05 0.02 0.01 0.01 0.02 0.02 0.01 0.01 0.03 0.16 0.10 0.12 0.15 0.09 0.09 0.07 0.04 0.04 0.06 0.20 0.10 0.01 0.00 0.00 0.00 0.00 0.00 0.00 0.00 0.00 0.00 0.00 0.00 0.00 0.00 0.00 0.00 0.00 0.00 0.00
0.06 0.07 0.10 0.08 0.05 0.06 0.07 0.06 0.06 0.05 0.04 0.04 0.10 0.10 0.15 0.17 0.22 0.04 0.02 0.01 0.01 0.03 0.46 0.20 0.02 0.00 0.00 0.00 0.00 0.00 0.00 0.00 0.00 0.00 0.00 0.00 0.00 0.00 0.00 0.00 0.00 0.00 0.00 0.00
0.06 0.07 0.05 0.07 0.12 0.10 0.02 0.01 0.03 0.05 0.05 0.05 0.16 0.13 0.20 0.14 0.09 0.03 0.01 0.01 0.06 0.20 0.09 0.01 0.00 0.00 0.00 0.00 0.00 0.00 0.00 0.00 0.00 0.00 0.00 0.00 0.00 0.00 0.00 0.00 0.00 0.00 0.00 0.00
0.05 0.04 0.01 0.03 0.16 0.34 0.17 0.04 0.04 0.03 0.01 0.06 0.14 0.19 0.07 0.06 0.07 0.03 0.03 0.07 0.09 0.09 0.02 0.00 0.00 0.00 0.00 0.00 0.00 0.00 0.00 0.00 0.00 0.00 0.00 0.00 0.00 0.00 0.00 0.00 0.01 0.00 0.01 0.01